Weather History for Morristown, NJ

Change the Weather History Date:

Tuesday, November 20, 2012

  Actual Average Record
Temperature  
Mean Temperature 37 °F -  
Max Temperature 50 °F 52 °F 77 °F (1941)
Min Temperature 24 °F 30 °F 17 °F (1947)
Degree Days  
Heating Degree Days 28    
Moisture  
Dew Point 29 °F    
Average Humidity 86    
Maximum Humidity 100    
Minimum Humidity 47    
Precipitation  
Precipitation 0.00 in - - ()
Sea Level Pressure  
Sea Level Pressure 30.18 in    
Wind  
Wind Speed 0 mph (SE)    
Max Wind Speed 5 mph    
Max Gust Speed -    
Visibility 10 miles    
Events      
Averages and records for this station are not official NWS values.
T = Trace of Precipitation, MM = Missing Value Source: NWS Daily Summary

Daily Weather History Graph

Daily Weather History Graph

Search for Another Location

Airport:

Trip Planner

Search our weather history database for the weather conditions in past years. The results will help you decide how hot, cold, wet, or windy it might be!

Date:

Astronomy

Nov. 20, 2012 Rise Set
Actual Time 6:51 AM EST 4:35 PM EST
Civil Twilight 6:21 AM EST 5:05 PM EST
Nautical Twilight 5:47 AM EST 5:38 PM EST
Astronomical Twilight 5:15 AM EST 6:11 PM EST
Moon 12:22 PM EST (11/20) No Moon Set
Length of Visible Light 10h 43m
Length of Day
9h 44m
Waxing Crescent, 51% of the Moon is Illuminated
Nov 20
Waxing Crescent
Nov 28
Full
Dec 6
Last Quarter
Dec 13
New
Dec 20
First Quarter

Hourly Weather History & Observations

Time (EST) Temp. Dew Point Humidity Pressure Visibility Wind Dir Wind Speed Gust Speed Precip Events Conditions
12:15 AM 26.6 °F 26.6 °F 100% 30.25 in 10.0 mi Calm Calm - N/A   Clear
12:35 AM 24.8 °F 24.8 °F 100% 30.25 in 10.0 mi Calm Calm - N/A   Clear
12:55 AM 24.8 °F 24.8 °F 100% 30.24 in 10.0 mi Calm Calm - N/A   Clear
1:15 AM 24.8 °F 24.8 °F 100% 30.23 in 10.0 mi Calm Calm - N/A   Clear
1:35 AM 24.8 °F 24.8 °F 100% 30.23 in 10.0 mi Calm Calm - N/A   Clear
1:55 AM 24.8 °F 24.8 °F 100% 30.23 in 5.0 mi Calm Calm - N/A   Scattered Clouds
2:15 AM 26.6 °F 26.6 °F 100% 30.23 in 2.0 mi Calm Calm - N/A   Scattered Clouds
2:35 AM 24.8 °F 24.8 °F 100% 30.22 in 10.0 mi Calm Calm - N/A   Clear
2:55 AM 24.8 °F 24.8 °F 100% 30.22 in 10.0 mi Calm Calm - N/A   Clear
3:15 AM 24.8 °F 24.8 °F 100% 30.22 in 10.0 mi Calm Calm - N/A   Clear
3:35 AM 24.8 °F 24.8 °F 100% 30.21 in 10.0 mi Calm Calm - N/A   Clear
7:45 AM 28.4 °F 28.4 °F 100% 30.21 in 10.0 mi Calm Calm - N/A   Scattered Clouds
8:45 AM 32.0 °F 30.2 °F 93% 30.21 in 10.0 mi Calm Calm - N/A   Mostly Cloudy
9:45 AM 37.4 °F 33.8 °F 87% 30.20 in 10.0 mi Calm Calm - N/A   Mostly Cloudy
10:45 AM 44.6 °F 33.8 °F 66% 30.20 in 10.0 mi Calm Calm - N/A   Mostly Cloudy
11:45 AM 46.4 °F 32.0 °F 57% 30.16 in 10.0 mi Calm Calm - N/A   Mostly Cloudy
12:45 PM 50.0 °F 30.2 °F 47% 30.15 in 10.0 mi South 4.6 mph - N/A   Mostly Cloudy
1:45 PM 48.2 °F 30.2 °F 50% 30.13 in 10.0 mi Calm Calm - N/A   Mostly Cloudy
2:45 PM 50.0 °F 30.2 °F 47% 30.12 in 10.0 mi Calm Calm - N/A   Mostly Cloudy
3:45 PM 48.2 °F 30.2 °F 50% 30.13 in 10.0 mi East 3.5 mph - N/A   Overcast
4:45 PM 42.8 °F 30.2 °F 61% 30.13 in 10.0 mi Calm Calm - N/A   Overcast
5:45 PM 37.4 °F 30.2 °F 75% 30.14 in 10.0 mi Calm Calm - N/A   Overcast
6:45 PM 37.4 °F 30.2 °F 75% 30.14 in 10.0 mi Calm Calm - N/A   Overcast
7:45 PM 35.6 °F 30.2 °F 81% 30.14 in 10.0 mi Calm Calm - N/A   Mostly Cloudy
8:45 PM 33.8 °F 30.2 °F 87% 30.15 in 10.0 mi Calm Calm - N/A   Mostly Cloudy
9:45 PM 33.8 °F 30.2 °F 87% 30.16 in 10.0 mi Calm Calm - N/A   Mostly Cloudy
9:55 PM 32.0 °F 32.0 °F 100% 30.15 in 10.0 mi Calm Calm - N/A   Clear
10:15 PM 32.0 °F 30.2 °F 93% 30.16 in 10.0 mi Calm Calm - N/A   Clear
10:35 PM 32.0 °F 30.2 °F 93% 30.16 in 10.0 mi Calm Calm - N/A   Clear
10:55 PM 32.0 °F 32.0 °F 100% 30.16 in 10.0 mi Calm Calm - N/A   Clear
11:15 PM 32.0 °F 32.0 °F 100% 30.16 in 10.0 mi Calm Calm - N/A   Clear
11:35 PM 32.0 °F 32.0 °F 100% 30.16 in 10.0 mi Calm Calm - N/A   Clear
11:55 PM 30.2 °F 30.2 °F 100% 30.16 in 10.0 mi Calm Calm - N/A   Clear